Location: *
(38.3255°S, 156.6685°W)
Time: 13:41:25
(UTC+00:00)

Daily predictions for brighter satellites

Satellite Brightness Start Highest point End
(mag) Time Altitude Azimuth Time Altitude Azimuth Time Altitude Azimuth
Cosmos 1782 Rocket 3.7 12:08:17 67° SW 12:08:17 67° SW 12:12:32 10° S
COSMOS 2441 4.4 12:12:33 61° W 12:12:33 61° W 12:17:20 10° SSW
Cosmos 158 Rocket 4.2 12:08:00 10° SSW 12:12:09 48° WSW 12:12:09 48° WSW
Cosmos 44 Rocket 3.3 12:14:08 62° WSW 12:14:22 63° WSW 12:19:00 10° SSE
Cosmos 1535 Rocket 4.4 12:08:45 10° SSW 12:14:52 65° W 12:16:08 53° NW
CZ-2C R/B 3.6 12:12:54 29° NE 12:15:42 62° ESE 12:21:23 10° S
Cosmos 1953 3.0 12:22:03 42° SW 12:22:03 42° SW 12:25:16 10° S
USA 306 3.7 12:28:14 32° SSW 12:28:14 32° SSW 12:31:26 10° SSE
ISS -3.0 12:30:57 52° S 12:30:57 52° S 12:33:55 10° SE
Meteor 1-21 Rocket 4.1 12:25:17 10° S 12:30:57 82° W 12:32:54 42° N
Cosmos 1975 Rocket 2.9 12:27:50 10° SSW 12:32:14 72° W 12:32:31 68° NW
Cosmos 2322 Rocket 3.7 12:30:31 10° S 12:35:44 37° ESE 12:40:54 10° NE
Cosmos 1315 Rocket 3.4 12:32:08 10° SSW 12:35:26 43° WSW 12:35:26 43° WSW
Cosmos 1867 3.4 12:30:46 10° SW 12:36:07 65° WNW 12:37:55 40° N
SL-8 R/B 4.3 12:37:01 39° NNE 12:37:39 41° NE 12:42:12 10° ESE
MOZ.5/SAFIR/RUBIN 5/SL-8 3.9 12:33:37 10° SSE 12:38:20 68° ENE 12:39:49 42° N
ADEOS II 2.9 12:39:43 32° W 12:39:43 32° W 12:44:20 10° SW
Cosmos 1328 3.9 12:36:26 10° SSW 12:40:04 55° WSW 12:40:04 55° WSW
Cosmos 2333 Rocket 4.5 12:35:46 10° S 12:40:22 24° SE 12:44:56 10° ENE
CZ-2C R/B 3.5 12:35:27 10° NE 12:40:23 45° ESE 12:45:18 10° S
Thor Agena Rocket 3.4 12:39:46 34° NNE 12:42:05 87° WNW 12:47:19 10° SSW
Genesis I 2.9 12:39:38 10° SSW 12:43:22 83° WNW 12:43:22 83° WNW
NOSS 3-1 (A) 3.1 12:38:22 10° SSW 12:44:34 88° ESE 12:49:40 10° NNE
NOSS 3-1 (C) 3.4 12:40:16 10° SW 12:45:48 41° WNW 12:46:03 40° WNW
SL-16 R/B 4.5 12:43:11 10° SE 12:47:55 22° E 12:52:35 10° NE
Resurs 1-4 Rocket 4.0 12:51:34 14° W 12:51:34 14° W 12:53:38 10° WSW
Cosmos 2151 Rocket 3.7 12:53:25 36° N 12:55:14 78° E 12:59:50 10° S
DNEPR-1 R/B 4.1 12:54:28 37° W 12:55:40 47° SW 12:59:44 10° SSE
SL-16 R/B 2.2 12:51:37 10° SSW 12:57:23 86° ESE 13:03:04 10° NNE
Cosmos 1459 Rocket 4.2 12:51:03 10° S 12:57:31 74° E 13:03:53 10° NNE
USA 281 3.7 12:53:25 10° NE 12:59:53 62° ESE 13:06:24 10° SSW
CZ-2D R/B 4.1 13:01:05 13° W 13:01:05 13° W 13:03:00 10° WSW
CZ-4 R/B 4.2 12:59:46 38° NW 13:00:35 41° W 13:05:03 10° SSW
Lacrosse 5 rocket 1.8 12:58:34 10° SSW 13:02:12 53° SE 13:05:54 10° ENE
ATLAS CENTAUR R/B 1.3 12:58:02 10° SSW 13:02:31 79° WNW 13:06:48 10° NNE
ALOS 2.6 13:01:30 38° NW 13:02:32 44° W 13:07:02 10° SSW
PAYLOAD A 4.1 12:58:42 10° NNE 13:03:27 67° ESE 13:08:11 10° S
Tiangong -1.6 13:04:55 45° NNE 13:04:55 45° NNE 13:07:53 10° E
Cosmos 1892 4.3 13:02:39 10° SW 13:04:43 20° WSW 13:04:43 20° WSW
Cosmos 1980 Rocket 3.8 13:01:54 10° WSW 13:04:48 17° W 13:04:48 17° W
METEOR-M 4.1 13:01:10 16° NNE 13:05:35 86° WNW 13:11:02 10° SSW
Envisat 3.0 13:06:47 10° NNE 13:11:54 83° ESE 13:17:03 10° S
Geosat 3.9 13:07:50 10° NNE 13:12:52 88° WNW 13:17:57 10° SSW
Cosmos 332 Rocket 3.8 13:15:50 29° NNW 13:18:18 72° WSW 13:23:11 10° SSE
Cosmos 1825 3.7 13:16:01 10° SW 13:18:15 19° WSW 13:18:15 19° WSW
Timation 1 Rocket 4.3 13:15:27 24° NNW 13:19:12 87° WSW 13:25:15 10° SSE
Cosmos 1898 Rocket 3.5 13:17:13 25° NNW 13:20:22 85° WSW 13:25:44 10° SSE
Meteor 1-4 Rocket 2.8 13:19:27 10° SSW 13:22:27 35° W 13:22:38 35° WNW
SL-27 R/B 3.1 13:23:26 21° NNE 13:25:05 42° ENE 13:28:01 10° SSE
Cosmos 2016 Rocket 4.2 13:19:00 10° S 13:25:30 79° E 13:31:52 10° N
Cosmos 2123 Rocket 4.0 13:21:08 17° NNW 13:26:04 78° W 13:32:22 10° S
IRS-1D 3.7 13:22:27 16° N 13:26:29 55° W 13:31:45 10° SSW
Cosmos 1455 4.0 13:26:21 16° W 13:26:40 16° WSW 13:28:59 10° SW
ATLAS 3B R/B 3.2 13:21:49 10° SW 13:27:10 30° WNW 13:31:06 16° NNW
YAOGAN 6 2.3 13:27:06 16° N 13:29:41 86° W 13:33:04 10° SSW
Cosmos 1455 Rocket 4.4 13:26:22 10° NNE 13:30:24 37° E 13:34:28 10° SSE
Sich 1 Rocket 4.3 13:29:10 25° NW 13:31:16 39° WSW 13:35:38 10° S
Cosmos 1937 Rocket 3.4 13:28:53 19° NNW 13:32:40 89° ENE 13:37:53 10° SSE
Meteor 2-13 Rocket 4.5 13:29:52 17° NNW 13:34:37 67° W 13:40:44 10° S
USA 32 4.4 13:33:08 10° N 13:38:20 67° E 13:43:37 10° S
Cosmos 1680 Rocket 4.3 13:34:11 10° S 13:39:26 55° ESE 13:44:39 10° NNE
Cosmos 1346 Rocket 2.9 13:37:32 13° N 13:40:57 74° E 13:44:52 10° SSE
Cosmos 2173 Rocket 4.4 13:41:16 10° SSW 13:46:59 41° W 13:52:28 11° NNW
Cosmos 2233 Rocket 4.3 13:41:17 10° S 13:47:41 76° E 13:53:59 10° NNE
Cosmos 1441 Rocket 4.0 13:46:40 20° NW 13:48:48 34° WSW 13:52:24 10° S
Cosmos 1802 Rocket 4.3 13:49:05 10° SSW 13:55:15 50° W 14:01:16 10° NNW
Okean 2 Rocket 4.5 13:53:06 15° WNW 13:55:31 23° WSW 13:59:07 10° SSW
Cosmos 372 Rocket 4.3 13:53:39 15° NW 13:57:50 51° WSW 14:02:52 10° S
Cosmos 2360 Rocket 2.3 13:58:12 10° SSW 14:03:45 56° WNW 14:09:17 10° N
Cosmos 1242 Rocket 2.4 14:00:40 10° SSW 14:03:55 54° W 14:07:06 10° N
Cosmos 2061 Rocket 4.0 13:58:54 10° SSW 14:05:06 66° W 14:11:15 10° N
H-2A R/B 3.4 14:03:05 10° NNE 14:06:30 54° ESE 14:09:58 10° S
ISS -1.0 14:06:05 10° SW 14:07:55 14° SSW 14:09:43 10° SSE
Cosmos 2219 Rocket 2.4 14:05:25 10° SSW 14:11:04 79° ESE 14:16:42 10° NNE
Cosmos 921 Rocket 2.9 14:08:41 10° SSW 14:12:56 80° WNW 14:17:06 10° N
UNK 3.8 14:08:18 10° S 14:13:01 83° WSW 14:17:37 10° NNW
Meteor 1-28 Rocket 3.9 14:11:22 10° S 14:14:47 36° WSW 14:18:09 10° NW
Cosmos 1725 Rocket 4.5 14:09:10 10° SSW 14:15:08 42° W 14:21:02 10° NNW
Okean 1 Rocket 4.5 14:14:23 10° NW 14:17:57 23° WSW 14:21:35 10° SSW
CZ-2C R/B 3.9 14:14:52 10° NW 14:18:40 20° W 14:22:28 10° SW
Cosmos 2322 Rocket 3.0 14:14:48 10° SW 14:19:35 29° WNW 14:24:20 10° NNW
SL-8 R/B 4.5 14:15:25 10° W 14:20:06 47° SSW 14:24:47 10° SE
ARIANE 5 R/B 2.7 14:17:22 10° NNE 14:22:37 87° ESE 14:27:52 10° SSW
USA 229 DEB 3.8 14:16:47 10° SW 14:22:50 43° WNW 14:28:28 10° N
USA 229 3.8 14:16:50 10° SW 14:22:54 44° WNW 14:28:33 10° N
Cosmos 2333 Rocket 2.5 14:19:24 10° SW 14:24:51 47° WNW 14:30:15 10° N
COSMOS 2428 3.7 14:19:31 10° SSW 14:25:08 53° ESE 14:30:40 10° NE
Cosmos 1892 Rocket 3.7 14:24:09 10° SSW 14:28:30 55° W 14:32:49 10° N
SL-16 R/B 2.8 14:25:44 10° S 14:31:46 54° WSW 14:37:45 10° NW
